Weather History for Litchfield, MN

Change the Weather History Date:

Tuesday, June 5, 2012

  Actual Average Record
Temperature  
Mean Temperature 68 °F -  
Max Temperature 80 °F 78 °F 95 °F (1968)
Min Temperature 57 °F 53 °F 38 °F (1985)
Cooling Degree Days 4    
Growing Degree Days 18 (Base 50)    
Moisture  
Dew Point 52 °F    
Average Humidity 58    
Maximum Humidity 94    
Minimum Humidity 28    
Precipitation  
Precipitation 0.00 in - - ()
Sea Level Pressure  
Sea Level Pressure 29.99 in    
Wind  
Wind Speed 4 mph (ENE)    
Max Wind Speed 12 mph    
Max Gust Speed 9 mph    
Visibility 10 miles    
Events      
Averages and records for this station are not official NWS values.
T = Trace of Precipitation, MM = Missing Value Source: NWS Daily Summary

Daily Weather History Graph

Daily Weather History Graph

Search for Another Location

Airport:

Trip Planner

Search our weather history database for the weather conditions in past years. The results will help you decide how hot, cold, wet, or windy it might be!

Date:

Astronomy

Jun. 05, 2012 Rise Set
Actual Time 5:32 AM CDT 9:01 PM CDT
Civil Twilight 4:55 AM CDT 9:38 PM CDT
Nautical Twilight 4:06 AM CDT 10:27 PM CDT
Astronomical Twilight 3:04 AM CDT 11:30 PM CDT
Moon 10:24 PM CDT (6/5) 6:45 AM CDT (6/5)
Length of Visible Light 16h 43m
Length of Day
15h 29m
Full, 98% of the Moon is Illuminated
Jun 5
Full
Jun 11
Last Quarter
Jun 19
New
Jun 26
First Quarter
Jul 3
Full

Hourly Weather History & Observations

Time (CDT) Temp. Dew Point Humidity Pressure Visibility Wind Dir Wind Speed Gust Speed Precip Events Conditions
12:13 AM 62.6 °F 48.2 °F 59% 29.97 in 10.0 mi Calm Calm - N/A   Clear
12:33 AM 60.8 °F 50.0 °F 68% 29.98 in 10.0 mi Calm Calm - N/A   Clear
12:53 AM 60.8 °F 51.8 °F 72% 29.97 in 10.0 mi Calm Calm - N/A   Clear
1:13 AM 60.8 °F 51.8 °F 72% 29.97 in 10.0 mi West 3.5 mph - N/A   Clear
1:32 AM 60.8 °F 55.4 °F 82% 29.97 in 10.0 mi Calm Calm - N/A   Clear
1:53 AM 57.2 °F 53.6 °F 88% 29.98 in 10.0 mi Calm Calm - N/A   Scattered Clouds
2:13 AM 60.8 °F 51.8 °F 72% 29.98 in 10.0 mi NW 3.5 mph - N/A   Scattered Clouds
2:32 AM 60.8 °F 50.0 °F 68% 29.98 in 10.0 mi NNW 3.5 mph - N/A   Clear
2:53 AM 60.8 °F 51.8 °F 72% 29.98 in 10.0 mi Calm Calm - N/A   Clear
3:13 AM 60.8 °F 50.0 °F 68% 29.99 in 10.0 mi Calm Calm - N/A   Clear
3:33 AM 59.0 °F 50.0 °F 72% 29.99 in 10.0 mi North 3.5 mph - N/A   Clear
3:53 AM 57.2 °F 51.8 °F 82% 29.99 in 10.0 mi North 5.8 mph - N/A   Clear
4:13 AM 57.2 °F 53.6 °F 88% 30.00 in 10.0 mi North 3.5 mph - N/A   Clear
4:33 AM 59.0 °F 53.6 °F 82% 30.00 in 10.0 mi NNE 5.8 mph - N/A   Clear
4:53 AM 59.0 °F 53.6 °F 82% 30.00 in 10.0 mi NE 3.5 mph - N/A   Clear
5:13 AM 57.2 °F 55.4 °F 94% 30.00 in 10.0 mi Calm Calm - N/A   Clear
5:33 AM 57.2 °F 55.4 °F 94% 30.00 in 10.0 mi Calm Calm - N/A   Clear
5:53 AM 57.2 °F 55.4 °F 94% 30.01 in 10.0 mi Calm Calm - N/A   Clear
6:13 AM 57.2 °F 55.4 °F 94% 30.01 in 7.0 mi Calm Calm - N/A   Clear
6:33 AM 60.8 °F 57.2 °F 88% 30.01 in 1.8 mi ENE 3.5 mph - N/A   Mist
6:53 AM 60.8 °F 57.2 °F 88% 30.00 in 10.0 mi ENE 4.6 mph - N/A   Clear
7:13 AM 62.6 °F 57.2 °F 82% 30.01 in 10.0 mi East 4.6 mph - N/A   Clear
7:33 AM 62.6 °F 59.0 °F 88% 30.02 in 10.0 mi East 5.8 mph - N/A   Clear
7:53 AM 64.4 °F 60.8 °F 88% 30.02 in 10.0 mi ESE 5.8 mph - N/A   Clear
8:13 AM 66.2 °F 60.8 °F 83% 30.03 in 10.0 mi East 6.9 mph - N/A   Clear
8:33 AM 66.2 °F 60.8 °F 83% 30.03 in 10.0 mi East 5.8 mph - N/A   Clear
8:53 AM 69.8 °F 60.8 °F 73% 30.03 in 10.0 mi ESE 5.8 mph - N/A   Clear
9:14 AM 69.8 °F 60.8 °F 73% 30.03 in 10.0 mi ESE 6.9 mph - N/A   Clear
9:33 AM 71.6 °F 60.8 °F 69% 30.03 in 10.0 mi East 3.5 mph - N/A   Clear
9:53 AM 73.4 °F 60.8 °F 65% 30.03 in 10.0 mi ESE 6.9 mph - N/A   Clear
10:13 AM 73.4 °F 60.8 °F 65% 30.03 in 10.0 mi East 6.9 mph - N/A   Clear
10:33 AM 75.2 °F 57.2 °F 53% 30.02 in 10.0 mi ESE 8.1 mph - N/A   Clear
10:53 AM 75.2 °F 57.2 °F 53% 30.03 in 10.0 mi ESE 10.4 mph - N/A   Clear
11:13 AM 77.0 °F 57.2 °F 50% 30.02 in 10.0 mi ESE 8.1 mph - N/A   Clear
11:33 AM 78.8 °F 55.4 °F 44% 30.02 in 10.0 mi East 8.1 mph - N/A   Clear
11:53 AM 78.8 °F 53.6 °F 42% 30.02 in 10.0 mi ESE 6.9 mph - N/A   Clear
12:13 PM 78.8 °F 50.0 °F 36% 30.02 in 10.0 mi NE 6.9 mph - N/A   Clear
12:33 PM 80.6 °F 50.0 °F 34% 30.02 in 10.0 mi NE 5.8 mph - N/A   Clear
12:53 PM 78.8 °F 48.2 °F 34% 30.02 in 10.0 mi NNE 6.9 mph - N/A   Clear
1:13 PM 80.6 °F 48.2 °F 32% 30.02 in 10.0 mi East 5.8 mph - N/A   Clear
1:33 PM 80.6 °F 48.2 °F 32% 30.02 in 10.0 mi ENE 9.2 mph - N/A   Clear
1:53 PM 80.6 °F 48.2 °F 32% 30.01 in 10.0 mi ENE 4.6 mph - N/A   Clear
2:12 PM 80.6 °F 46.4 °F 30% 30.00 in 10.0 mi Calm Calm - N/A   Scattered Clouds
2:33 PM 80.6 °F 46.4 °F 30% 30.00 in 10.0 mi ENE 11.5 mph - N/A   Clear
2:53 PM 80.6 °F 44.6 °F 28% 30.00 in 10.0 mi NE 10.4 mph - N/A   Clear
3:13 PM 80.6 °F 46.4 °F 30% 29.99 in 7.0 mi NE 6.9 mph - N/A   Clear
3:33 PM 80.6 °F 46.4 °F 30% 29.99 in 10.0 mi NE 6.9 mph - N/A   Clear
3:53 PM 80.6 °F 46.4 °F 30% 29.99 in 10.0 mi NE 9.2 mph - N/A   Clear
4:13 PM 80.6 °F 46.4 °F 30% 29.99 in 10.0 mi ENE 6.9 mph - N/A   Clear
4:33 PM 80.6 °F 44.6 °F 28% 29.99 in 10.0 mi NE 8.1 mph - N/A   Clear
4:53 PM 80.6 °F 48.2 °F 32% 29.98 in 10.0 mi ENE 4.6 mph 9.2 mph N/A   Clear
5:13 PM 80.6 °F 48.2 °F 32% 29.98 in 10.0 mi ENE 9.2 mph - N/A   Clear
5:33 PM 80.6 °F 46.4 °F 30% 29.97 in 10.0 mi NE 8.1 mph - N/A   Clear
5:53 PM 80.6 °F 48.2 °F 32% 29.96 in 10.0 mi ENE 4.6 mph - N/A   Clear
6:13 PM 80.6 °F 46.4 °F 30% 29.96 in 10.0 mi East 9.2 mph - N/A   Clear
6:33 PM 78.8 °F 48.2 °F 34% 29.96 in 10.0 mi East 6.9 mph - N/A   Clear
6:53 PM 78.8 °F 48.2 °F 34% 29.96 in 10.0 mi East 5.8 mph - N/A   Clear
7:13 PM 78.8 °F 46.4 °F 32% 29.96 in 10.0 mi ENE 8.1 mph - N/A   Clear
7:33 PM 78.8 °F 48.2 °F 34% 29.96 in 10.0 mi East 4.6 mph - N/A   Clear
7:53 PM 75.2 °F 48.2 °F 38% 29.96 in 10.0 mi ESE 8.1 mph - N/A   Clear
8:13 PM 71.6 °F 51.8 °F 50% 29.96 in 10.0 mi ESE 5.8 mph - N/A   Clear
8:33 PM 71.6 °F 51.8 °F 50% 29.96 in 10.0 mi ESE 3.5 mph - N/A   Clear
8:53 PM 71.6 °F 51.8 °F 50% 29.96 in 10.0 mi Calm Calm - N/A   Clear
9:13 PM 69.8 °F 51.8 °F 53% 29.96 in 10.0 mi East 3.5 mph - N/A   Clear
9:33 PM 69.8 °F 53.6 °F 56% 29.96 in 10.0 mi Calm Calm - N/A   Scattered Clouds
9:53 PM 69.8 °F 53.6 °F 56% 29.97 in 10.0 mi East 3.5 mph - N/A   Scattered Clouds
10:13 PM 68.0 °F 53.6 °F 60% 29.98 in 10.0 mi East 3.5 mph - N/A   Scattered Clouds
10:33 PM 66.2 °F 53.6 °F 64% 29.98 in 10.0 mi East 4.6 mph - N/A   Clear
10:53 PM 66.2 °F 53.6 °F 64% 29.99 in 10.0 mi East 4.6 mph - N/A   Clear
11:33 PM 64.4 °F 53.6 °F 68% 29.99 in 10.0 mi ESE 3.5 mph - N/A   Clear
11:53 PM 64.4 °F 53.6 °F 68% 29.99 in 10.0 mi ESE 3.5 mph - N/A   Scattered Clouds